Regional Weather Roundup
Issued by NWS

Home | Current Version | Previous Version | Graphics & Text | Print | Product List | Glossary Off
Versions: 1 2 3 4 5 6 7 8 9 10 11 12 13 14 15 16 17 18 19 20 21 22 23 24 25 26 27 28 29 30 31 32 33 34 35 36 37 38 39 40 41 42 43 44 45 46 47 48 49 50

000
ASUS43 KDTX 261210
RWRMI
MICHIGAN HOURLY REGIONAL WEATHER ROUNDUP
NATIONAL WEATHER SERVICE DETROIT/PONTIAC MI
800 AM EDT MON JUN 26 2017

NOTE: "FAIR" INDICATES FEW OR NO CLOUDS BELOW 12,000 FEET WITH NO
SIGNIFICANT WEATHER AND/OR OBSTRUCTION TO VISIBILITY.

MIZ047>049-052>055-059>063-066>070-074>076-081>083-261300-
SOUTHEAST LOWER MICHIGAN

CITY           SKY/WX    TMP DP  RH WIND       PRES   REMARKS
ADRIAN         SUNNY     57  52  83 W8        30.08R
6HR MIN TEMP:  51; 6HR MAX TEMP:  57;

ALMA           PTSUNNY   57  52  84 W9G20     30.03R
ANN ARBOR      SUNNY     58  54  86 W10       30.05R
BAD AXE        CLOUDY    56  54  94 SW7       29.98S
6HR MIN TEMP:  55; 6HR MAX TEMP:  56;

CARO           PTSUNNY   56  53  91 W7        29.99S
DETROIT CITY   SUNNY     59  52  77 W10       30.03S
6HR MIN TEMP:  55; 6HR MAX TEMP:  59;

DETROIT        MOSUNNY   60  52  74 W9        30.05R
6HR MIN TEMP:  54; 6HR MAX TEMP:  60;

FLINT          PTSUNNY   57  52  83 W13       30.02S
6HR MIN TEMP:  53; 6HR MAX TEMP:  56;

GROSSE ILE     SUNNY     59  52  75 NW9       30.04R
6HR MIN TEMP:  56; 6HR MAX TEMP:  59;

HILLSDALE      PTSUNNY   57  52  82 W7        30.07R
HOWELL         MOSUNNY   57  51  81 W10       30.04R
6HR MIN TEMP:  53; 6HR MAX TEMP:  57;


CITY           SKY/WX    TMP DP  RH WIND       PRES   REMARKS
JACKSON        SUNNY     57  52  83 W8        30.06R
6HR MIN TEMP:  53; 6HR MAX TEMP:  57;

LAMBERTVILLE   SUNNY     59  52  77 W7        30.07R
6HR MIN TEMP:  51; 6HR MAX TEMP:  59;

LANSING        MOSUNNY   59  51  75 W13       30.05R
6HR MIN TEMP:  54; 6HR MAX TEMP:  59;

LAPEER         CLOUDY    57  51  81 W8        30.01S
6HR MIN TEMP:  54; 6HR MAX TEMP:  57;

MASON          PTSUNNY   57  53  88 W9        30.05S
MONROE         SUNNY     59  53  78 W9        30.05S
6HR MIN TEMP:  53; 6HR MAX TEMP:  59;

MT. CLEMENS    MOSUNNY   60  53  77 W12       30.00S
6HR MIN TEMP:  54; 6HR MAX TEMP:  60;

PONTIAC        PTSUNNY   57  53  86 W8        30.02R
6HR MIN TEMP:  53; 6HR MAX TEMP:  57;

PORT HOPE        N/A     58  54  86 VRB5      29.95S
6HR MIN TEMP:  56; 6HR MAX TEMP:  59;

PORT HURON     SUNNY     57  50  77 W3        30.01S
TRI CITIES     MOSUNNY   58  54  86 W15       30.00S
6HR MIN TEMP:  56; 6HR MAX TEMP:  60;

MIDLAND        FAIR      58  52  79 W8        29.99S
6HR MIN TEMP:  55; 6HR MAX TEMP:  58;

TROY           SUNNY     58  51  76 W10G17    30.05R
SAGINAW HB     PTSUNNY   59  50  72 SW14G20   30.00S
$$
MIZ043>046-050>051-056>058-064>065-071>073-077>080-261300-
SOUTHWEST LOWER MICHIGAN

CITY           SKY/WX    TMP DP  RH WIND       PRES   REMARKS
BATTLE CREEK   SUNNY     57  53  86 W9        30.08R
6HR MIN TEMP:  52; 6HR MAX TEMP:  57;

BENTON HARBOR  SUNNY     63  46  54 W14G21    30.09R
6HR MIN TEMP:  60; 6HR MAX TEMP:  63;

BIG RAPIDS     MOSUNNY   54  47  78 W10       30.01R
6HR MIN TEMP:  52; 6HR MAX TEMP:  55;

COLDWATER      SUNNY     59  53  80 W10       30.08S
6HR MIN TEMP:  54; 6HR MAX TEMP:  59;

FREMONT        FAIR      55  49  82 W7        30.04R
HOLLAND        MOSUNNY   61  51  70 W9G20     30.07R
6HR MIN TEMP:  58; 6HR MAX TEMP:  61;

GRAND RAPIDS   MOSUNNY   59  51  75 W8        30.05R
6HR MIN TEMP:  54; 6HR MAX TEMP:  59;

IONIA          FAIR      57  50  78 W10       30.04S
6HR MIN TEMP:  52; 6HR MAX TEMP:  57;

KALAMAZOO      SUNNY     59  51  75 W7        30.08S
6HR MIN TEMP:  53; 6HR MAX TEMP:  59;

LUDINGTON      CLOUDY    56  49  77 W9        30.02S
6HR MIN TEMP:  53; 6HR MAX TEMP:  58;

MARSHALL       SUNNY     57  54  88 W8        30.07R
6HR MIN TEMP:  51; 6HR MAX TEMP:  57;

MOUNT PLEASANT MOSUNNY   57  50  78 W12G17    30.00R
6HR MIN TEMP:  54; 6HR MAX TEMP:  57;

MUSKEGON       PTSUNNY   59  53  80 W10       30.05R
6HR MIN TEMP:  58; 6HR MAX TEMP:  60;

SOUTH HAVEN    SUNNY     63  49  60 W13       30.08R
$$
MIZ016>042-261300-
NORTHERN LOWER MICHIGAN

CITY           SKY/WX    TMP DP  RH WIND       PRES   REMARKS
ALPENA         MOSUNNY   56  56 100 CALM      29.94F
6HR MIN TEMP:  51; 6HR MAX TEMP:  56; 6HR PCP: TRACE;

BEAVER ISLAND  HVY RAIN  53  52  95 CALM      29.94S
6HR MIN TEMP:  53; 6HR MAX TEMP:  55;

BELLAIRE       CLOUDY    54  53  94 CALM      29.95R
6HR MIN TEMP:  51; 6HR MAX TEMP:  55;

CADILLAC       PTSUNNY   54  48  80 W7G20     29.98S
CHARLEVOIX     LGT RAIN  55  55 100 W5        29.96S
6HR MIN TEMP:  55; 6HR MAX TEMP:  56;

FRANKFORT      PTSUNNY   55  47  74 W14G20    29.98S
GAYLORD        RAIN      53  51  93 SW5       29.93S FOG
6HR MIN TEMP:  50; 6HR MAX TEMP:  54; 6HR PCP:  0.19;

GRAYLING       CLOUDY    54  51  88 W10G17    29.96R
6HR MIN TEMP:  51; 6HR MAX TEMP:  54;

HARBOR SPRINGS RAIN      55  55 100 CALM      29.93R
HOUGHTON LAKE  CLOUDY    55  50  83 W13       29.97S
6HR MIN TEMP:  54; 6HR MAX TEMP:  57; 6HR PCP: TRACE;

MANISTEE       MOSUNNY   56  49  77 W15       30.00S
OSCODA         CLOUDY    56  54  94 W7        29.95S
6HR MIN TEMP:  52; 6HR MAX TEMP:  57;

PELLSTON       RAIN      54  51  90 NE3       29.93S FOG
6HR MIN TEMP:  51; 6HR MAX TEMP:  55; 6HR PCP:  0.27;

ROGERS CITY    CLOUDY    57  53  86 CALM      29.93F
TRAVERSE CITY  CLOUDY    56  52  86 W9        29.95R
6HR MIN TEMP:  55; 6HR MAX TEMP:  58; 6HR PCP:  0.17;

$$
MIZ007>008-015-261300-
EASTERN UPPER MICHIGAN

CITY           SKY/WX    TMP DP  RH WIND       PRES   REMARKS
KINROSS        LGT RAIN  53  52  96 NE3       29.93S
6HR MIN TEMP:  51; 6HR MAX TEMP:  54;

MACKINAC ISLAN RAIN      53  53 100 N5        29.92F
6HR MIN TEMP:  53; 6HR MAX TEMP:  55; 6HR PCP:  0.38;

NEWBERRY       LGT RAIN  47  46  97 CALM      29.94S
6HR MIN TEMP:  47; 6HR MAX TEMP:  51; 6HR PCP:  0.09;

S. S. MARIE    CLOUDY    55  52  89 E5        29.93S
6HR MIN TEMP:  53; 6HR MAX TEMP:  55;

MUNISING         N/A     49  48  97 NW9       29.95S
6HR MIN TEMP:  48; 6HR MAX TEMP:  52; 6HR PCP:  0.23;

$$
MIZ004>006-011>014-085-261300-
CENTRAL UPPER MICHIGAN

CITY           SKY/WX    TMP DP  RH WIND       PRES   REMARKS
MANISTIQUE     CLOUDY    50  47  90 NW3       29.95R
6HR MIN TEMP:  49; 6HR MAX TEMP:  51; 6HR PCP:  0.30;

ESCANABA       CLOUDY    52  51  97 W6        29.96R
6HR MIN TEMP:  52; 6HR MAX TEMP:  53;

MENOMINEE      CLOUDY    51  46  83 VRB6      30.00S
6HR MIN TEMP:  47; 6HR MAX TEMP:  52;

SAWYER-GWINN   CLOUDY    46  46 100 N9        29.97R FOG
$$
MIZ001>003-009>011-084-261300-
WESTERN UPPER MICHIGAN

CITY           SKY/WX    TMP DP  RH WIND       PRES   REMARKS
IRON MOUNTAIN  CLOUDY    49  44  83 NW9       29.97S
6HR MIN TEMP:  48; 6HR MAX TEMP:  50;

HOUGHTON       LGT RAIN  48  46  93 N7        29.99R
6HR MIN TEMP:  47; 6HR MAX TEMP:  48; 6HR PCP:  0.26;

COPPER HARBOR    N/A     49  48  97 N9        29.99R
6HR MIN TEMP:  48; 6HR MAX TEMP:  50; 6HR PCP:  0.22;

IRONWOOD       LGT RAIN  47  46  97 NW10      30.06R
6HR MIN TEMP:  45; 6HR MAX TEMP:  47;

$$

ABBREVIATIONS USED IN REMARKS
   TC - TEMPERATURE IN CELSIUS
  WCI - WIND CHILL INDEX
   HX - HEAT INDEX
  VSB - VISIBILITY




USA.gov is the U.S. government's official web portal to all federal, state and local government web resources and services.